THY6024 EHBK-LTFM

Flight info

Callsign THY6024
Flight time 2h 41m
Altitude 33000
Route LNO L607 ROPUV/N0485F330 L607 UBIDU L984 RUDUS DCT BOMBI DCT BARSU DCT MOOCE DCT RUDNO DCT DEXIT DCT STEIN/N0478F350 DCT BABIT DCT KOTUS DCT ETIDA T390 RILEX
Aircraft B77L/H-SDE1E2E3FGHIJ2J3J4J5M1RWXY/LB1D1

Departure

Time 2026-05-08 21:50
Airport Maastricht Aachen Airport (EHBK)

Arrival

Time 2026-05-09 00:32
Airport İstanbul Airport (LTFM)
Time Latitude Longitude Altitude Speed Heading
2026-05-08 21:12 50.91404 5.77801 388 ft 0 kts 122°
2026-05-08 21:30 50.91406 5.77795 388 ft 3 kts 122°
2026-05-08 21:31 50.91420 5.77759 388 ft 4 kts 121°
2026-05-08 21:31 50.91433 5.77723 388 ft 4 kts 117°
2026-05-08 21:31 50.91440 5.77684 388 ft 4 kts 84°
2026-05-08 21:31 50.91432 5.77647 388 ft 4 kts 47°
2026-05-08 21:32 50.91423 5.77633 388 ft 1 kts 32°
2026-05-08 21:44 50.91443 5.77653 388 ft 11 kts 32°
2026-05-08 21:44 50.91511 5.77720 388 ft 12 kts 32°
2026-05-08 21:44 50.91566 5.77716 388 ft 7 kts 324°
2026-05-08 21:45 50.91628 5.77587 387 ft 15 kts 301°
2026-05-08 21:45 50.91607 5.77447 386 ft 15 kts 217°
2026-05-08 21:45 50.91517 5.77356 387 ft 15 kts 212°
2026-05-08 21:45 50.91417 5.77254 388 ft 19 kts 213°
2026-05-08 21:46 50.91253 5.77088 388 ft 35 kts 212°
2026-05-08 21:46 50.91052 5.76886 386 ft 33 kts 212°
2026-05-08 21:46 50.90862 5.76696 387 ft 31 kts 213°
2026-05-08 21:46 50.90686 5.76516 389 ft 30 kts 213°
2026-05-08 21:47 50.90512 5.76335 389 ft 30 kts 212°
2026-05-08 21:47 50.90335 5.76159 387 ft 29 kts 212°
2026-05-08 21:47 50.90167 5.75989 388 ft 25 kts 212°
2026-05-08 21:47 50.90083 5.75883 389 ft 13 kts 242°
2026-05-08 21:48 50.90048 5.75801 390 ft 5 kts 175°
2026-05-08 21:48 50.90047 5.75848 390 ft 5 kts 68°
2026-05-08 21:48 50.90070 5.75888 390 ft 5 kts 34°
2026-05-08 21:48 50.90093 5.75914 389 ft 0 kts 32°
2026-05-08 21:49 50.90097 5.75917 389 ft 1 kts 32°
2026-05-08 21:49 50.90101 5.75921 389 ft 0 kts 32°
2026-05-08 21:49 50.90103 5.75924 389 ft 1 kts 32°
2026-05-08 21:49 50.90152 5.75973 388 ft 27 kts 32°
2026-05-08 21:50 50.90536 5.76361 389 ft 103 kts 33°
2026-05-08 21:50 50.91327 5.77161 388 ft 159 kts 33°
2026-05-08 21:50 50.92313 5.78248 632 ft 176 kts 36°
2026-05-08 21:50 50.93291 5.79402 1084 ft 176 kts 48°
2026-05-08 21:51 50.93812 5.81139 1593 ft 175 kts 76°
2026-05-08 21:51 50.94215 5.82977 2160 ft 182 kts 72°
2026-05-08 21:51 50.94261 5.85058 2279 ft 202 kts 109°
2026-05-08 21:51 50.93359 5.86873 2439 ft 227 kts 150°
2026-05-08 21:52 50.91842 5.87867 2672 ft 245 kts 157°
2026-05-08 21:52 50.90227 5.88875 3299 ft 254 kts 157°
2026-05-08 21:52 50.88574 5.89935 4005 ft 259 kts 157°
2026-05-08 21:52 50.86919 5.91006 4750 ft 262 kts 157°
2026-05-08 21:53 50.85223 5.92112 5484 ft 265 kts 158°
2026-05-08 21:53 50.83503 5.93240 6187 ft 270 kts 158°
2026-05-08 21:53 50.81747 5.94392 6865 ft 275 kts 158°
2026-05-08 21:53 50.79962 5.95479 7516 ft 275 kts 167°
2026-05-08 21:54 50.78060 5.95447 8059 ft 278 kts 200°
2026-05-08 21:54 50.76405 5.93929 8719 ft 275 kts 220°
2026-05-08 21:54 50.74914 5.91970 9312 ft 282 kts 220°
2026-05-08 21:54 50.73391 5.90000 10038 ft 284 kts 220°
2026-05-08 21:55 50.71850 5.88011 10593 ft 292 kts 219°
2026-05-08 21:55 50.70241 5.85932 10775 ft 315 kts 219°
2026-05-08 21:55 50.68486 5.83668 10957 ft 338 kts 219°
2026-05-08 21:56 50.64643 5.78731 11764 ft 369 kts 219°
2026-05-08 21:56 50.62596 5.76274 12408 ft 372 kts 211°
2026-05-08 21:56 50.60140 5.74898 13065 ft 381 kts 187°
2026-05-08 21:56 50.57498 5.75075 13998 ft 383 kts 167°
2026-05-08 21:57 50.55001 5.76547 14783 ft 388 kts 151°
2026-05-08 21:57 50.52875 5.79169 15366 ft 392 kts 137°
2026-05-08 21:57 50.50918 5.82135 15910 ft 401 kts 136°
2026-05-08 21:57 50.48901 5.85200 16625 ft 405 kts 136°
2026-05-08 21:58 50.46859 5.88280 17376 ft 409 kts 137°
2026-05-08 21:58 50.44785 5.91376 18072 ft 414 kts 137°
2026-05-08 21:58 50.42675 5.94498 18707 ft 420 kts 137°
2026-05-08 21:58 50.40536 5.97645 19323 ft 424 kts 137°
2026-05-08 21:59 50.38375 6.00815 19959 ft 427 kts 137°
2026-05-08 21:59 50.36196 6.04005 20608 ft 430 kts 137°
2026-05-08 21:59 50.33999 6.07215 21237 ft 434 kts 137°
2026-05-08 21:59 50.31892 6.10512 21714 ft 437 kts 129°
2026-05-08 22:00 50.30236 6.14538 22174 ft 443 kts 115°
2026-05-08 22:00 50.29194 6.19071 22847 ft 444 kts 102°
2026-05-08 22:00 50.28717 6.23841 23511 ft 445 kts 96°
2026-05-08 22:00 50.28309 6.28668 24013 ft 449 kts 97°
2026-05-08 22:01 50.27836 6.33522 24492 ft 454 kts 98°
2026-05-08 22:01 50.27315 6.38399 24967 ft 457 kts 98°
2026-05-08 22:01 50.26774 6.43313 25468 ft 460 kts 98°
2026-05-08 22:01 50.26235 6.48186 25940 ft 463 kts 98°
2026-05-08 22:02 50.25687 6.53164 26404 ft 466 kts 98°
2026-05-08 22:02 50.25138 6.58172 26875 ft 470 kts 98°
2026-05-08 22:02 50.24585 6.63220 27335 ft 473 kts 98°
2026-05-08 22:02 50.24027 6.68301 27799 ft 476 kts 98°
2026-05-08 22:03 50.23465 6.73412 28249 ft 479 kts 98°
2026-05-08 22:03 50.22897 6.78546 28671 ft 482 kts 98°
2026-05-08 22:03 50.22324 6.83725 29083 ft 485 kts 97°
2026-05-08 22:03 50.21878 6.88953 29489 ft 487 kts 93°
2026-05-08 22:04 50.21593 6.94227 29873 ft 489 kts 92°
2026-05-08 22:04 50.21359 6.99458 30252 ft 490 kts 92°
2026-05-08 22:04 50.21117 7.04772 30649 ft 490 kts 92°
2026-05-08 22:04 50.20855 7.10083 31034 ft 491 kts 93°
2026-05-08 22:05 50.20574 7.15388 31394 ft 491 kts 93°
2026-05-08 22:05 50.20282 7.20704 31751 ft 492 kts 93°
2026-05-08 22:05 50.19985 7.26023 32103 ft 492 kts 93°
2026-05-08 22:05 50.19591 7.31335 32445 ft 494 kts 98°
2026-05-08 22:06 50.18890 7.36584 32785 ft 495 kts 104°
2026-05-08 22:06 50.17849 7.41717 33064 ft 497 kts 108°
2026-05-08 22:06 50.16724 7.46847 33109 ft 502 kts 108°
2026-05-08 22:07 50.14493 7.57050 33126 ft 498 kts 108°
2026-05-08 22:07 50.12311 7.67235 33139 ft 495 kts 108°
2026-05-08 22:08 50.10141 7.77397 33133 ft 494 kts 108°
2026-05-08 22:08 50.07960 7.87547 33132 ft 495 kts 108°
2026-05-08 22:09 50.06199 7.97806 33152 ft 494 kts 101°
2026-05-08 22:09 50.05006 8.08331 33128 ft 494 kts 95°
2026-05-08 22:10 50.04871 8.18982 33145 ft 493 kts 88°
2026-05-08 22:10 50.05086 8.29645 33126 ft 493 kts 88°
2026-05-08 22:11 50.05257 8.40249 33128 ft 494 kts 88°
2026-05-08 22:11 50.05391 8.50934 33137 ft 494 kts 89°
2026-05-08 22:12 50.05511 8.61622 33128 ft 494 kts 89°
2026-05-08 22:12 50.05626 8.72305 33128 ft 494 kts 89°
2026-05-08 22:13 50.05550 8.82980 33119 ft 494 kts 95°
2026-05-08 22:13 50.04708 8.93510 33137 ft 494 kts 97°
2026-05-08 22:14 50.03810 9.04096 33138 ft 494 kts 97°
2026-05-08 22:14 50.02938 9.14662 33142 ft 494 kts 97°
2026-05-08 22:15 50.02075 9.25254 33141 ft 494 kts 97°
2026-05-08 22:15 50.01211 9.35784 33145 ft 495 kts 97°
2026-05-08 22:16 50.00328 9.46390 33145 ft 495 kts 97°
2026-05-08 22:16 49.99435 9.56992 33139 ft 495 kts 97°
2026-05-08 22:17 49.98685 9.65807 33136 ft 495 kts 98°
2026-05-08 22:17 49.97774 9.76407 33136 ft 495 kts 98°
2026-05-08 22:18 49.96701 9.88736 33139 ft 496 kts 98°
2026-05-08 22:18 49.95919 9.97633 33154 ft 496 kts 98°
2026-05-08 22:19 49.94984 10.08171 33157 ft 496 kts 98°
2026-05-08 22:19 49.94031 10.18787 33162 ft 497 kts 98°
2026-05-08 22:20 49.92912 10.31135 33163 ft 497 kts 99°
2026-05-08 22:20 49.91646 10.39887 33164 ft 496 kts 108°
2026-05-08 22:21 49.89052 10.49704 33169 ft 495 kts 116°
2026-05-08 22:21 49.86076 10.59347 33175 ft 496 kts 116°
2026-05-08 22:22 49.83115 10.69008 33173 ft 497 kts 116°
2026-05-08 22:22 49.80171 10.78688 33180 ft 497 kts 116°
2026-05-08 22:23 49.77227 10.88363 33169 ft 497 kts 116°
2026-05-08 22:23 49.74291 10.97963 33150 ft 497 kts 116°
2026-05-08 22:24 49.71328 11.07611 33147 ft 497 kts 117°
2026-05-08 22:24 49.68354 11.17255 33146 ft 497 kts 117°
2026-05-08 22:25 49.65374 11.26881 33160 ft 497 kts 117°
2026-05-08 22:25 49.62404 11.36442 33149 ft 498 kts 117°
2026-05-08 22:26 49.59401 11.46071 33156 ft 499 kts 117°
2026-05-08 22:26 49.56429 11.55759 33152 ft 501 kts 114°
2026-05-08 22:27 49.54076 11.65884 33141 ft 503 kts 110°
2026-05-08 22:27 49.51801 11.76066 33128 ft 504 kts 110°
2026-05-08 22:28 49.49500 11.86173 33136 ft 504 kts 110°
2026-05-08 22:28 49.47154 11.96330 33133 ft 504 kts 111°
2026-05-08 22:29 49.44796 12.06478 33134 ft 504 kts 111°
2026-05-08 22:29 49.42433 12.16611 33138 ft 503 kts 111°
2026-05-08 22:30 49.40081 12.26657 33140 ft 503 kts 111°
2026-05-08 22:30 49.37707 12.36751 33142 ft 502 kts 111°
2026-05-08 22:31 49.35328 12.46820 33140 ft 502 kts 111°
2026-05-08 22:31 49.32362 12.56468 33131 ft 499 kts 122°
2026-05-08 22:32 49.28381 12.65137 33146 ft 497 kts 129°
2026-05-08 22:32 49.24246 12.73546 33133 ft 498 kts 129°
2026-05-08 22:33 49.20090 12.82057 33149 ft 500 kts 129°
2026-05-08 22:33 49.15942 12.90593 33150 ft 501 kts 129°
2026-05-08 22:34 49.11779 12.99146 33137 ft 502 kts 129°
2026-05-08 22:34 49.07631 13.07638 33141 ft 502 kts 129°
2026-05-08 22:35 49.03448 13.16172 33127 ft 502 kts 129°
2026-05-08 22:35 48.99263 13.24678 33127 ft 501 kts 129°
2026-05-08 22:36 48.95078 13.33160 33140 ft 501 kts 129°
2026-05-08 22:36 48.90887 13.41627 33132 ft 501 kts 129°
2026-05-08 22:37 48.86724 13.50011 33142 ft 500 kts 129°
2026-05-08 22:37 48.82529 13.58437 33142 ft 500 kts 130°
2026-05-08 22:38 48.78324 13.66857 33122 ft 501 kts 130°
2026-05-08 22:38 48.74253 13.75414 33136 ft 501 kts 127°
2026-05-08 22:39 48.70435 13.84145 33140 ft 500 kts 126°
2026-05-08 22:39 48.66600 13.92930 33123 ft 500 kts 126°
2026-05-08 22:40 48.62743 14.01690 33134 ft 500 kts 127°
2026-05-08 22:40 48.58874 14.10421 33134 ft 500 kts 127°
2026-05-08 22:41 48.55030 14.19058 33113 ft 499 kts 127°
2026-05-08 22:41 48.51160 14.27730 33106 ft 498 kts 127°
2026-05-08 22:42 48.47291 14.36373 33128 ft 497 kts 127°
2026-05-08 22:42 48.43422 14.44991 33109 ft 496 kts 127°
2026-05-08 22:43 48.39580 14.53518 33118 ft 495 kts 127°
2026-05-08 22:43 48.35709 14.62083 33106 ft 495 kts 127°
2026-05-08 22:44 48.31833 14.70632 33123 ft 495 kts 127°
2026-05-08 22:44 48.27947 14.79177 33107 ft 495 kts 127°
2026-05-08 22:45 48.24087 14.87639 33121 ft 495 kts 127°
2026-05-08 22:45 48.20196 14.96142 33123 ft 494 kts 127°
2026-05-08 22:46 48.16302 15.04625 33114 ft 494 kts 127°
2026-05-08 22:46 48.12406 15.13086 33112 ft 493 kts 128°
2026-05-08 22:47 48.08516 15.21506 33119 ft 491 kts 128°
2026-05-08 22:47 48.04654 15.29842 33110 ft 490 kts 128°
2026-05-08 22:48 48.00771 15.38199 33118 ft 489 kts 128°
2026-05-08 22:48 47.96883 15.46536 33109 ft 489 kts 129°
2026-05-08 22:49 47.92998 15.54845 33119 ft 488 kts 129°
2026-05-08 22:49 47.87205 15.67191 33129 ft 486 kts 129°
2026-05-08 22:50 47.83318 15.75437 33121 ft 487 kts 129°
2026-05-08 22:50 47.79423 15.83680 33121 ft 487 kts 129°
2026-05-08 22:51 47.75552 15.91844 33117 ft 486 kts 130°
2026-05-08 22:51 47.71659 16.00035 33108 ft 484 kts 130°
2026-05-08 22:52 47.67777 16.08177 33114 ft 483 kts 130°
2026-05-08 22:52 47.63893 16.16300 33102 ft 482 kts 130°
2026-05-08 22:53 47.60013 16.24388 33109 ft 481 kts 130°
2026-05-08 22:53 47.56162 16.32392 33113 ft 480 kts 130°
2026-05-08 22:54 47.52277 16.40445 33104 ft 480 kts 130°
2026-05-08 22:54 47.48392 16.48477 33111 ft 480 kts 130°
2026-05-08 22:55 47.44499 16.56504 33106 ft 481 kts 130°
2026-05-08 22:55 47.40345 16.64170 33107 ft 476 kts 137°
2026-05-08 22:56 47.35888 16.71305 33106 ft 476 kts 137°
2026-05-08 22:56 47.31396 16.78486 33102 ft 477 kts 137°
2026-05-08 22:57 47.26912 16.85694 33101 ft 478 kts 137°
2026-05-08 22:57 47.22452 16.92869 33119 ft 479 kts 136°
2026-05-08 22:58 47.17946 17.00102 33119 ft 480 kts 137°
2026-05-08 22:58 47.13429 17.07332 33091 ft 481 kts 136°
2026-05-08 22:59 47.08900 17.14562 33098 ft 480 kts 136°
2026-05-08 22:59 47.04374 17.21767 33094 ft 480 kts 136°
2026-05-08 23:00 46.99875 17.28908 33097 ft 479 kts 137°
2026-05-08 23:00 46.95352 17.36069 33098 ft 479 kts 137°
2026-05-08 23:01 46.90824 17.43217 33082 ft 478 kts 137°
2026-05-08 23:01 46.86299 17.50343 33081 ft 478 kts 137°
2026-05-08 23:02 46.81797 17.57412 33084 ft 478 kts 137°
2026-05-08 23:02 46.77257 17.64523 33089 ft 479 kts 137°
2026-05-08 23:03 46.72714 17.71620 33085 ft 479 kts 137°
2026-05-08 23:03 46.68160 17.78716 33075 ft 479 kts 137°
2026-05-08 23:04 46.63632 17.85752 33078 ft 480 kts 137°
2026-05-08 23:05 46.63119 17.86549 33079 ft 480 kts 137°
2026-05-08 23:05 46.58546 17.93632 33072 ft 481 kts 137°
2026-05-08 23:06 46.53996 18.00665 33078 ft 481 kts 137°
2026-05-08 23:06 46.49411 18.07731 33062 ft 480 kts 136°
2026-05-08 23:07 46.44824 18.14782 33063 ft 480 kts 136°
2026-05-08 23:07 46.40235 18.21819 33072 ft 480 kts 137°
2026-05-08 23:08 46.35672 18.28797 33076 ft 480 kts 137°
2026-05-08 23:08 46.31073 18.35811 33072 ft 480 kts 136°
2026-05-08 23:09 46.26482 18.42795 33070 ft 478 kts 136°
2026-05-08 23:09 46.21900 18.49748 33063 ft 477 kts 136°
2026-05-08 23:10 46.17353 18.56630 33067 ft 477 kts 137°
2026-05-08 23:10 46.12774 18.63542 33051 ft 476 kts 137°
2026-05-08 23:11 46.08193 18.70439 33054 ft 476 kts 137°
2026-05-08 23:11 46.03603 18.77333 33051 ft 477 kts 137°
2026-05-08 23:12 45.99033 18.84182 33049 ft 478 kts 137°
2026-05-08 23:12 45.94419 18.91080 33029 ft 479 kts 137°
2026-05-08 23:13 45.89956 18.98202 33044 ft 480 kts 134°
2026-05-08 23:13 45.85617 19.05489 33047 ft 480 kts 133°
2026-05-08 23:14 45.81302 19.12717 33045 ft 480 kts 134°
2026-05-08 23:14 45.76947 19.19959 33030 ft 480 kts 134°
2026-05-08 23:15 45.72572 19.27198 33046 ft 481 kts 134°
2026-05-08 23:15 45.68185 19.34437 33046 ft 482 kts 134°
2026-05-08 23:16 45.63788 19.41677 33042 ft 483 kts 134°
2026-05-08 23:16 45.59410 19.48867 33041 ft 483 kts 134°
2026-05-08 23:17 45.54994 19.56101 33038 ft 483 kts 134°
2026-05-08 23:17 45.50577 19.63318 33040 ft 483 kts 134°
2026-05-08 23:18 45.46154 19.70527 33040 ft 483 kts 134°
2026-05-08 23:18 45.41762 19.77666 33018 ft 482 kts 134°
2026-05-08 23:19 45.37341 19.84836 33033 ft 481 kts 134°
2026-05-08 23:19 45.32923 19.91985 33039 ft 481 kts 134°
2026-05-08 23:20 45.28484 19.99096 33038 ft 481 kts 135°
2026-05-08 23:20 45.24012 20.06159 33015 ft 481 kts 135°
2026-05-08 23:21 45.19576 20.13150 33033 ft 480 kts 135°
2026-05-08 23:21 45.15107 20.20187 33037 ft 480 kts 135°
2026-05-08 23:22 45.10638 20.27214 33030 ft 480 kts 135°
2026-05-08 23:22 45.06165 20.34231 33011 ft 480 kts 135°
2026-05-08 23:23 45.01718 20.41186 33025 ft 480 kts 135°
2026-05-08 23:23 44.97229 20.48193 33032 ft 481 kts 135°
2026-05-08 23:24 44.92729 20.55196 33054 ft 482 kts 135°
2026-05-08 23:24 44.88219 20.62199 33036 ft 483 kts 134°
2026-05-08 23:25 44.83726 20.69158 33042 ft 483 kts 134°
2026-05-08 23:25 44.79196 20.76157 33040 ft 484 kts 135°
2026-05-08 23:26 44.74656 20.83153 33036 ft 484 kts 135°
2026-05-08 23:26 44.70109 20.90142 33018 ft 484 kts 134°
2026-05-08 23:27 44.65561 20.97114 33029 ft 484 kts 134°
2026-05-08 23:27 44.61040 21.04030 33032 ft 484 kts 134°
2026-05-08 23:28 44.56481 21.10986 33031 ft 484 kts 134°
2026-05-08 23:28 44.51917 21.17932 33023 ft 485 kts 134°
2026-05-08 23:29 44.47347 21.24869 33032 ft 485 kts 134°
2026-05-08 23:29 44.42794 21.31763 33035 ft 486 kts 134°
2026-05-08 23:30 44.38204 21.38697 33036 ft 486 kts 134°
2026-05-08 23:30 44.33604 21.45629 33031 ft 487 kts 134°
2026-05-08 23:31 44.28994 21.52559 33038 ft 488 kts 134°
2026-05-08 23:31 44.24366 21.59497 33037 ft 488 kts 134°
2026-05-08 23:32 44.19764 21.66381 33034 ft 489 kts 134°
2026-05-08 23:32 44.15125 21.73302 33048 ft 488 kts 134°
2026-05-08 23:33 44.10483 21.80212 33029 ft 489 kts 134°
2026-05-08 23:33 44.05838 21.87110 33043 ft 488 kts 134°
2026-05-08 23:34 44.01217 21.93952 33010 ft 489 kts 134°
2026-05-08 23:34 43.96562 22.00830 33032 ft 489 kts 134°
2026-05-08 23:35 43.91900 22.07701 33026 ft 489 kts 134°
2026-05-08 23:35 43.87228 22.14571 33024 ft 490 kts 134°
2026-05-08 23:36 43.82581 22.21387 33026 ft 490 kts 135°
2026-05-08 23:36 43.77897 22.28242 33011 ft 490 kts 135°
2026-05-08 23:37 43.73212 22.35083 33026 ft 490 kts 135°
2026-05-08 23:37 43.68781 22.42245 33029 ft 492 kts 126°
2026-05-08 23:38 43.65328 22.50415 33028 ft 494 kts 117°
2026-05-08 23:38 43.62292 22.58850 33034 ft 494 kts 117°
2026-05-08 23:39 43.59212 22.67333 33031 ft 495 kts 118°
2026-05-08 23:39 43.56100 22.75795 33026 ft 495 kts 118°
2026-05-08 23:40 43.52971 22.84243 33026 ft 495 kts 118°
2026-05-08 23:40 43.49859 22.92615 33032 ft 495 kts 118°
2026-05-08 23:41 43.46719 23.01042 33033 ft 494 kts 118°
2026-05-08 23:41 43.43576 23.09457 33028 ft 494 kts 118°
2026-05-08 23:42 43.40431 23.17851 33035 ft 493 kts 118°
2026-05-08 23:42 43.37302 23.26175 33031 ft 493 kts 118°
2026-05-08 23:43 43.34153 23.34528 33032 ft 492 kts 118°
2026-05-08 23:43 43.30999 23.42873 33037 ft 492 kts 118°
2026-05-08 23:44 43.27837 23.51209 33044 ft 493 kts 118°
2026-05-08 23:44 43.24684 23.59499 33036 ft 494 kts 118°
2026-05-08 23:45 43.21500 23.67849 33034 ft 495 kts 118°
2026-05-08 23:45 43.18301 23.76212 33034 ft 496 kts 118°
2026-05-08 23:46 43.15086 23.84592 33030 ft 497 kts 118°
2026-05-08 23:46 43.11863 23.92966 33036 ft 497 kts 118°
2026-05-08 23:47 43.08657 24.01273 33036 ft 497 kts 118°
2026-05-08 23:47 43.05428 24.09616 33033 ft 496 kts 118°
2026-05-08 23:48 43.02199 24.17936 33031 ft 495 kts 118°
2026-05-08 23:48 42.98968 24.26232 33035 ft 494 kts 118°
2026-05-08 23:49 42.95760 24.34450 33027 ft 493 kts 118°
2026-05-08 23:49 42.92531 24.42697 33040 ft 492 kts 118°
2026-05-08 23:50 42.89301 24.50923 33034 ft 492 kts 118°
2026-05-08 23:50 42.86072 24.59129 33036 ft 491 kts 118°
2026-05-08 23:51 42.82855 24.67270 33031 ft 492 kts 118°
2026-05-08 23:51 42.79606 24.75478 33040 ft 493 kts 118°
2026-05-08 23:52 42.76336 24.83716 33041 ft 495 kts 119°
2026-05-08 23:52 42.73059 24.91952 33044 ft 495 kts 119°
2026-05-08 23:53 42.69798 25.00128 33041 ft 495 kts 119°
2026-05-08 23:53 42.66514 25.08334 33043 ft 494 kts 119°
2026-05-08 23:54 42.63225 25.16529 33041 ft 493 kts 119°
2026-05-08 23:55 42.58292 25.28778 33042 ft 493 kts 119°
2026-05-08 23:55 42.55020 25.36875 33043 ft 493 kts 119°
2026-05-08 23:56 42.51722 25.45015 33038 ft 493 kts 119°
2026-05-08 23:56 42.48419 25.53143 33045 ft 492 kts 119°
2026-05-08 23:57 42.45108 25.61267 33035 ft 493 kts 119°
2026-05-08 23:57 42.41824 25.69302 32789 ft 485 kts 119°
2026-05-08 23:57 42.40193 25.73288 32014 ft 486 kts 119°
2026-05-08 23:58 42.38544 25.77308 31025 ft 491 kts 120°
2026-05-08 23:58 42.36876 25.81373 30001 ft 492 kts 120°
2026-05-08 23:58 42.35219 25.85402 28977 ft 492 kts 120°
2026-05-08 23:58 42.33557 25.89437 28316 ft 488 kts 120°
2026-05-08 23:59 42.31916 25.93417 27841 ft 481 kts 120°
2026-05-08 23:59 42.30296 25.97342 27321 ft 476 kts 120°
2026-05-08 23:59 42.28711 26.01179 26792 ft 472 kts 120°
2026-05-08 23:59 42.27119 26.05027 26234 ft 469 kts 120°
2026-05-09 00:00 42.25532 26.08856 25702 ft 465 kts 120°
2026-05-09 00:00 42.23955 26.12652 25175 ft 462 kts 120°
2026-05-09 00:00 42.22386 26.16422 24672 ft 459 kts 120°
2026-05-09 00:00 42.20830 26.20159 24188 ft 455 kts 120°
2026-05-09 00:01 42.19283 26.23870 23618 ft 454 kts 119°
2026-05-09 00:01 42.17736 26.27577 23092 ft 451 kts 120°
2026-05-09 00:01 42.16212 26.31224 22766 ft 443 kts 120°
2026-05-09 00:01 42.14722 26.34787 22455 ft 442 kts 120°
2026-05-09 00:02 42.13214 26.38388 22143 ft 442 kts 120°
2026-05-09 00:02 42.11700 26.41998 21851 ft 442 kts 120°
2026-05-09 00:02 42.10188 26.45600 21551 ft 441 kts 120°
2026-05-09 00:02 42.08681 26.49187 21248 ft 440 kts 121°
2026-05-09 00:03 42.07176 26.52762 20955 ft 438 kts 121°
2026-05-09 00:03 42.05677 26.56320 20659 ft 436 kts 121°
2026-05-09 00:03 42.04184 26.59858 20358 ft 434 kts 121°
2026-05-09 00:03 42.02694 26.63361 20141 ft 429 kts 122°
2026-05-09 00:04 42.01217 26.66754 20109 ft 423 kts 122°
2026-05-09 00:04 41.99612 26.70061 20131 ft 423 kts 128°
2026-05-09 00:04 41.97722 26.73080 20025 ft 422 kts 133°
2026-05-09 00:04 41.95772 26.76004 19730 ft 418 kts 134°
2026-05-09 00:05 41.93833 26.78899 19285 ft 416 kts 133°
2026-05-09 00:05 41.91909 26.81782 19104 ft 413 kts 133°
2026-05-09 00:05 41.89995 26.84662 19053 ft 415 kts 133°
2026-05-09 00:05 41.88069 26.87573 19077 ft 419 kts 133°
2026-05-09 00:06 41.86128 26.90511 19058 ft 421 kts 133°
2026-05-09 00:06 41.84216 26.93409 19060 ft 420 kts 133°
2026-05-09 00:06 41.82285 26.96337 19060 ft 419 kts 133°
2026-05-09 00:06 41.80355 26.99259 19062 ft 418 kts 133°
2026-05-09 00:07 41.78425 27.02179 19060 ft 418 kts 133°
2026-05-09 00:07 41.76496 27.05094 19078 ft 419 kts 133°
2026-05-09 00:07 41.74560 27.08016 19060 ft 420 kts 133°
2026-05-09 00:07 41.72622 27.10937 19062 ft 420 kts 133°
2026-05-09 00:08 41.70680 27.13863 19061 ft 421 kts 133°
2026-05-09 00:08 41.68758 27.16756 19067 ft 421 kts 133°
2026-05-09 00:08 41.66811 27.19685 19080 ft 422 kts 133°
2026-05-09 00:08 41.64862 27.22614 19082 ft 421 kts 133°
2026-05-09 00:09 41.62912 27.25540 19060 ft 421 kts 134°
2026-05-09 00:09 41.61094 27.28573 19061 ft 420 kts 122°
2026-05-09 00:09 41.60038 27.32237 19043 ft 427 kts 102°
2026-05-09 00:09 41.59932 27.36204 18721 ft 429 kts 83°
2026-05-09 00:10 41.60702 27.40041 18254 ft 428 kts 66°
2026-05-09 00:10 41.62217 27.43381 17725 ft 426 kts 53°
2026-05-09 00:10 41.63976 27.46555 17208 ft 425 kts 54°
2026-05-09 00:10 41.65690 27.49770 16705 ft 424 kts 55°
2026-05-09 00:11 41.67369 27.53008 16206 ft 423 kts 56°
2026-05-09 00:11 41.69031 27.56250 15715 ft 422 kts 56°
2026-05-09 00:11 41.70688 27.59487 15229 ft 422 kts 56°
2026-05-09 00:11 41.72348 27.62724 14732 ft 419 kts 56°
2026-05-09 00:12 41.73964 27.65875 14254 ft 412 kts 57°
2026-05-09 00:12 41.75486 27.69040 13869 ft 396 kts 62°
2026-05-09 00:12 41.76774 27.72318 13595 ft 400 kts 65°
2026-05-09 00:12 41.78027 27.75659 13281 ft 400 kts 66°
2026-05-09 00:13 41.78855 27.79164 12975 ft 395 kts 85°
2026-05-09 00:13 41.78809 27.82804 12700 ft 390 kts 103°
2026-05-09 00:13 41.78130 27.86299 12378 ft 388 kts 109°
2026-05-09 00:13 41.77387 27.89779 12043 ft 387 kts 108°
2026-05-09 00:14 41.76540 27.93112 11736 ft 369 kts 121°
2026-05-09 00:14 41.75019 27.95688 11492 ft 350 kts 143°
2026-05-09 00:14 41.73048 27.97480 11247 ft 336 kts 156°
2026-05-09 00:14 41.70913 27.98576 11001 ft 323 kts 167°
2026-05-09 00:15 41.68776 27.99326 10782 ft 313 kts 168°
2026-05-09 00:15 41.66693 28.00062 10549 ft 306 kts 168°
2026-05-09 00:15 41.64671 28.00799 10327 ft 297 kts 168°
2026-05-09 00:15 41.63362 28.01283 10203 ft 291 kts 168°
2026-05-09 00:16 41.62058 28.01768 10156 ft 282 kts 168°
2026-05-09 00:16 41.60223 28.02209 10082 ft 262 kts 181°
2026-05-09 00:16 41.58444 28.02207 10078 ft 254 kts 185°
2026-05-09 00:16 41.56679 28.02159 10021 ft 253 kts 184°
2026-05-09 00:17 41.54917 28.02137 9981 ft 253 kts 184°
2026-05-09 00:17 41.53169 28.02131 9977 ft 250 kts 183°
2026-05-09 00:17 41.51440 28.02237 9965 ft 250 kts 172°
2026-05-09 00:17 41.49732 28.02821 9994 ft 257 kts 167°
2026-05-09 00:18 41.47997 28.03507 9983 ft 262 kts 167°
2026-05-09 00:18 41.46247 28.04178 9979 ft 260 kts 166°
2026-05-09 00:18 41.44691 28.05315 9727 ft 266 kts 136°
2026-05-09 00:18 41.43767 28.07466 9376 ft 275 kts 108°
2026-05-09 00:19 41.43514 28.10019 9045 ft 281 kts 90°
2026-05-09 00:19 41.43735 28.12610 8794 ft 281 kts 82°
2026-05-09 00:19 41.44094 28.15129 8363 ft 276 kts 81°
2026-05-09 00:19 41.44473 28.17644 7763 ft 277 kts 81°
2026-05-09 00:20 41.44846 28.20161 7238 ft 276 kts 81°
2026-05-09 00:20 41.45202 28.22634 6730 ft 275 kts 81°
2026-05-09 00:20 41.45552 28.25115 6406 ft 268 kts 82°
2026-05-09 00:20 41.45889 28.27555 6231 ft 272 kts 82°
2026-05-09 00:21 41.46232 28.30070 5989 ft 278 kts 82°
2026-05-09 00:21 41.46573 28.32594 5764 ft 275 kts 82°
2026-05-09 00:21 41.46907 28.35070 5548 ft 268 kts 82°
2026-05-09 00:21 41.47249 28.37482 5326 ft 261 kts 76°
2026-05-09 00:22 41.48119 28.39560 5128 ft 262 kts 42°
2026-05-09 00:22 41.49541 28.41043 4980 ft 267 kts 36°
2026-05-09 00:22 41.51040 28.42558 4767 ft 272 kts 37°
2026-05-09 00:22 41.52535 28.44093 4545 ft 269 kts 38°
2026-05-09 00:23 41.53996 28.45592 4323 ft 261 kts 37°
2026-05-09 00:23 41.55427 28.47060 4118 ft 258 kts 37°
2026-05-09 00:23 41.56769 28.48589 3893 ft 249 kts 53°
2026-05-09 00:23 41.57610 28.50576 3730 ft 246 kts 67°
2026-05-09 00:24 41.58373 28.52649 3542 ft 250 kts 64°
2026-05-09 00:24 41.59171 28.54691 3322 ft 252 kts 64°
2026-05-09 00:24 41.59982 28.56753 3115 ft 248 kts 64°
2026-05-09 00:24 41.60562 28.58817 2958 ft 230 kts 91°
2026-05-09 00:25 41.60514 28.60945 3023 ft 235 kts 95°
2026-05-09 00:25 41.60492 28.63173 2977 ft 243 kts 94°
2026-05-09 00:25 41.60437 28.65398 2946 ft 234 kts 106°
2026-05-09 00:25 41.59707 28.67215 2982 ft 220 kts 143°
2026-05-09 00:26 41.58446 28.68350 2986 ft 220 kts 153°
2026-05-09 00:26 41.57135 28.69395 2966 ft 221 kts 154°
2026-05-09 00:26 41.55741 28.69986 2965 ft 204 kts 177°
2026-05-09 00:26 41.54344 28.70110 2970 ft 199 kts 179°
2026-05-09 00:27 41.52969 28.70193 2970 ft 197 kts 180°
2026-05-09 00:27 41.51599 28.70238 2972 ft 197 kts 181°
2026-05-09 00:27 41.50225 28.70271 2982 ft 197 kts 181°
2026-05-09 00:27 41.48858 28.70299 3035 ft 197 kts 181°
2026-05-09 00:28 41.47510 28.70326 2971 ft 188 kts 181°
2026-05-09 00:28 41.46266 28.70351 2965 ft 175 kts 181°
2026-05-09 00:28 41.45068 28.70375 3009 ft 172 kts 181°
2026-05-09 00:28 41.43872 28.70398 2981 ft 173 kts 181°
2026-05-09 00:29 41.42649 28.70420 2755 ft 176 kts 181°
2026-05-09 00:29 41.41434 28.70445 2521 ft 173 kts 180°
2026-05-09 00:29 41.40260 28.70469 2284 ft 163 kts 180°
2026-05-09 00:29 41.39149 28.70491 2084 ft 157 kts 180°
2026-05-09 00:30 41.38056 28.70513 1885 ft 159 kts 180°
2026-05-09 00:30 41.36972 28.70534 1667 ft 157 kts 180°
2026-05-09 00:30 41.35887 28.70556 1449 ft 154 kts 180°
2026-05-09 00:30 41.34843 28.70577 1244 ft 148 kts 180°
2026-05-09 00:31 41.33827 28.70598 1091 ft 140 kts 179°
2026-05-09 00:31 41.32835 28.70618 820 ft 145 kts 179°
2026-05-09 00:31 41.31814 28.70640 636 ft 149 kts 178°
2026-05-09 00:31 41.30765 28.70656 393 ft 150 kts 177°
2026-05-09 00:32 41.29739 28.70675 215 ft 144 kts 177°
2026-05-09 00:32 41.28842 28.70697 181 ft 113 kts 179°
2026-05-09 00:32 41.28262 28.70708 191 ft 38 kts 180°
2026-05-09 00:32 41.28056 28.70765 194 ft 30 kts 151°
2026-05-09 00:33 41.27950 28.70847 199 ft 6 kts 149°
2026-05-09 00:33 41.27891 28.70892 183 ft 22 kts 149°
2026-05-09 00:33 41.27709 28.71036 182 ft 32 kts 149°
2026-05-09 00:33 41.27590 28.71130 181 ft 16 kts 149°
2026-05-09 00:34 41.27489 28.71189 182 ft 16 kts 168°
2026-05-09 00:34 41.27379 28.71202 182 ft 16 kts 179°
2026-05-09 00:34 41.27268 28.71203 182 ft 16 kts 179°
2026-05-09 00:34 41.27156 28.71206 182 ft 16 kts 180°
2026-05-09 00:35 41.27044 28.71207 182 ft 16 kts 179°
2026-05-09 00:35 41.26933 28.71210 182 ft 16 kts 179°
2026-05-09 00:35 41.26821 28.71213 182 ft 16 kts 179°
2026-05-09 00:35 41.26783 28.71241 182 ft 5 kts 120°
2026-05-09 00:36 41.26778 28.71360 182 ft 22 kts 89°
2026-05-09 00:36 41.26779 28.71564 181 ft 22 kts 90°
2026-05-09 00:36 41.26783 28.71771 181 ft 22 kts 88°
2026-05-09 00:36 41.26784 28.71979 181 ft 22 kts 90°
2026-05-09 00:37 41.26786 28.72153 180 ft 11 kts 89°
2026-05-09 00:37 41.26792 28.72249 180 ft 11 kts 66°
2026-05-09 00:37 41.26859 28.72282 180 ft 11 kts
2026-05-09 00:37 41.26935 28.72281 180 ft 12 kts 359°
2026-05-09 00:38 41.27017 28.72279 180 ft 12 kts 359°
2026-05-09 00:38 41.27098 28.72278 180 ft 12 kts 359°
2026-05-09 00:38 41.27180 28.72277 180 ft 12 kts 359°
2026-05-09 00:38 41.27260 28.72275 180 ft 12 kts 359°
2026-05-09 00:39 41.27342 28.72275 180 ft 12 kts 359°
2026-05-09 00:39 41.27423 28.72274 180 ft 12 kts 359°
2026-05-09 00:39 41.27487 28.72254 180 ft 8 kts 304°
2026-05-09 00:39 41.27496 28.72178 180 ft 8 kts 271°
2026-05-09 00:40 41.27496 28.72130 180 ft 2 kts 270°
2026-05-09 00:40 41.27496 28.72117 180 ft 0 kts 269°